Palmdale, CA

3:10 PM PDT on July 25, 2017 (GMT -0700)
Palmdale Af Plant 42

Weather History for KPMD - April, 2014

Change the Weather History Date:

Tuesday, April 1, 2014

  Actual Average Record
Temperature  
Mean Temperature 49 °F 55 °F  
Max Temperature 57 °F 69 °F 92 °F (1966)
Min Temperature 40 °F 41 °F 27 °F (1971)
Degree Days  
Heating Degree Days 16 11  
Month to date heating degree days 16 11  
Since 1 July heating degree days 2177 2632  
Cooling Degree Days 0 0  
Month to date cooling degree days 0 0  
Year to date cooling degree days 1 2  
Moisture  
Dew Point 37 °F    
Average Humidity 65    
Maximum Humidity 92    
Minimum Humidity 38    
Precipitation  
Precipitation 0.11 in 0.02 in 1.00 in (1982)
Month to date precipitation 0.11 0.02  
Year to date precipitation 2.07 4.53  
Since 1 July precipitation 4.14  
Snow  
Snow 0.00 in - 0.00 in (1973)
Month to date snowfall  
Since 1 July snowfall 0.0  
Snow Depth 0.00 in    
Sea Level Pressure  
Sea Level Pressure 29.91 in    
Wind  
Wind Speed 14 mph (West)    
Max Wind Speed 28 mph    
Max Gust Speed 34 mph    
Visibility 9 miles    
Events Rain    
T = Trace of Precipitation, MM = Missing Value Source: NWS Daily Summary

Daily Weather History Graph

Daily Weather History Graph

Search for Another Location

Airport or City:

Trip Planner

Search our weather history database for the weather conditions in past years. The results will help you decide how hot, cold, wet, or windy it might be!

Date:

Astronomy

Apr. 01, 2014 Rise Set
Actual Time 6:39 AM PDT 7:13 PM PDT
Civil Twilight 6:13 AM PDT 7:38 PM PDT
Nautical Twilight 5:44 AM PDT 8:08 PM PDT
Astronomical Twilight 5:13 AM PDT 8:39 PM PDT
Moon 7:50 AM PDT (4/1) 9:34 PM PDT (4/1)
Length of Visible Light 13h 25m
Length of Day
12h 34m
Waxing Crescent, 5% of the Moon is Illuminated
Apr 1
Waxing Crescent
Apr 7
First Quarter
Apr 15
Full
Apr 22
Last Quarter
Apr 28
New

Hourly Weather History & Observations

Time (PDT) Temp. Windchill Dew Point Humidity Pressure Visibility Wind Dir Wind Speed Gust Speed Precip Events Conditions
12:53 AM 45.0 °F 37.6 °F 41.0 °F 86% 29.89 in 7.0 mi WSW 17.3 mph - 0.02 in Rain Light Rain
1:53 AM 45.0 °F 41.2 °F 43.0 °F 93% 29.89 in 5.0 mi West 6.9 mph - 0.04 in Rain Light Rain
2:53 AM 45.0 °F 38.2 °F 42.1 °F 90% 29.88 in 8.0 mi WNW 15.0 mph - 0.02 in   Overcast
2:58 AM 44.1 °F 38.1 °F 42.1 °F 93% 29.91 in 7.0 mi WNW 11.5 mph - N/A   Overcast
3:23 AM 45.0 °F 40.1 °F 42.1 °F 90% 29.90 in 10.0 mi West 9.2 mph - 0.01 in   Mostly Cloudy
3:39 AM 46.9 °F - 42.1 °F 83% 29.90 in 10.0 mi WSW 17.3 mph - 0.01 in   Scattered Clouds
3:53 AM 46.0 °F 39.0 °F 42.1 °F 86% 29.88 in 10.0 mi WSW 17.3 mph - 0.01 in   Mostly Cloudy
4:18 AM 44.1 °F 37.7 °F 41.0 °F 89% 29.90 in 10.0 mi West 12.7 mph - N/A   Overcast
4:53 AM 44.1 °F 36.5 °F 37.0 °F 76% 29.89 in 10.0 mi West 17.3 mph - N/A   Mostly Cloudy
5:53 AM 43.0 °F 37.2 °F 36.0 °F 76% 29.90 in 10.0 mi West 10.4 mph - N/A   Partly Cloudy
6:53 AM 39.9 °F 35.8 °F 36.0 °F 86% 29.91 in 10.0 mi WSW 5.8 mph - N/A   Clear
7:53 AM 44.1 °F 38.1 °F 36.0 °F 73% 29.93 in 10.0 mi WSW 11.5 mph - N/A   Clear
8:53 AM 46.9 °F - 36.0 °F 66% 29.94 in 10.0 mi WSW 10.4 mph - N/A   Clear
9:53 AM 48.9 °F - 36.0 °F 61% 29.96 in 10.0 mi WSW 12.7 mph - N/A   Partly Cloudy
10:53 AM 48.9 °F - 35.1 °F 59% 29.96 in 10.0 mi WSW 11.5 mph - N/A   Mostly Cloudy
11:53 AM 52.0 °F - 33.1 °F 49% 29.95 in 10.0 mi SW 15.0 mph 21.9 mph N/A   Scattered Clouds
12:53 PM 55.0 °F - 32.0 °F 42% 29.93 in 10.0 mi SW 13.8 mph 21.9 mph N/A   Scattered Clouds
1:43 PM 55.9 °F - 30.0 °F 37% 29.93 in 10.0 mi WNW 13.8 mph 20.7 mph N/A   Overcast
1:53 PM 55.0 °F - 30.9 °F 40% 29.91 in 10.0 mi WNW 11.5 mph 21.9 mph N/A   Mostly Cloudy
2:53 PM 51.1 °F - 34.0 °F 52% 29.91 in 10.0 mi NW 17.3 mph - N/A   Overcast
3:53 PM 50.0 °F - 37.0 °F 61% 29.90 in 10.0 mi WNW 17.3 mph - N/A   Overcast
4:53 PM 48.0 °F - 37.0 °F 66% 29.89 in 10.0 mi WNW 20.7 mph - N/A   Overcast
5:53 PM 45.0 °F 37.6 °F 39.0 °F 80% 29.91 in 10.0 mi West 17.3 mph 26.5 mph 0.00 in Rain Light Rain
6:53 PM 43.0 °F 35.1 °F 39.0 °F 86% 29.92 in 2.5 mi West 17.3 mph - 0.01 in Rain Rain
7:05 PM 43.0 °F 37.2 °F 39.0 °F 86% 29.91 in 4.0 mi West 10.4 mph - 0.02 in Rain Rain
7:53 PM 44.1 °F 39.0 °F 39.9 °F 85% 29.90 in 10.0 mi West 9.2 mph - 0.02 in   Overcast
8:53 PM 45.0 °F 37.4 °F 37.9 °F 76% 29.90 in 10.0 mi SW 18.4 mph - 0.01 in   Overcast
9:53 PM 44.1 °F 37.1 °F 37.0 °F 76% 29.91 in 10.0 mi WSW 15.0 mph - 0.00 in   Overcast
10:53 PM 43.0 °F 36.4 °F 35.1 °F 74% 29.91 in 10.0 mi SW 12.7 mph - N/A   Partly Cloudy
11:53 PM 44.1 °F 36.8 °F 36.0 °F 73% 29.90 in 10.0 mi SW 16.1 mph - N/A   Overcast